Retour au catalogue

ATLAS 5 CENTAUR DEB

ActifHEO
NORAD 43999·DEBRIS·🇺🇸 United States

Lancé Sep 17, 2014 depuis Cape Canaveral Space Force Station

Loading…

Prochains Passages (prochaines 24 heures)

TLE

FraisSource: Space-Track

Époque: Sep 7, 2026, 16:21 UTC

1 43999U 14055BE  26250.68181087 -.00000109  00000-0  00000-0 0  9994
2 43999  20.1143 142.8026 4697952 167.8882 209.2187  1.85335916 54236

Suivez ATLAS 5 CENTAUR DEB en temps réel avec AllMySat

Download on the App Store